VE7PRT-1 Weather Reports


Display with metric or nautical units.
time (UTC)temp
F
wind
direction
speed
MPH
gust
MPH
rain 1hr
in
rain 24hr
in
rain mn
in
humidity
%
barometer
mb
20260504110239 52 359 0.0 0.0 0.00 0.00 0.00 95 1009.2
20260504080948 54 359 0.0 0.0 0.00 0.00 0.00 94 1009.4
20260504070239 56 359 0.0 0.0 0.00 0.00 0.00 92 1009.5
20260504045739 60 359 0.0 0.0 0.00 0.00 0.00 82 1009.8
20260504044304 61 359 0.0 0.0 0.00 0.00 0.00 81 1009.8
20260504042847 62 359 0.0 0.0 0.00 0.00 0.00 79 1009.8
20260504041519 63 359 0.0 0.0 0.00 0.00 0.00 76 1009.8
20260504040147 64 359 0.0 0.0 0.00 0.00 0.00 75 1009.8
20260504034917 67 359 0.0 0.0 0.00 0.00 0.00 65 1009.7
20260504033530 67 359 0.0 0.0 0.00 0.00 0.00 65 1009.7
20260504032133 69 359 0.0 0.0 0.00 0.00 0.00 61 1009.8
20260504030727 69 359 0.0 0.0 0.00 0.00 0.00 59 1009.9
20260504025354 70 359 0.0 0.0 0.00 0.00 0.00 57 1010.0
20260504024039 70 359 0.0 0.0 0.00 0.00 0.00 55 1010.2
20260504022805 71 359 0.0 0.0 0.00 0.00 0.00 54 1010.2
20260504021439 71 359 1.0 0.0 0.00 0.00 0.00 52 1010.4
20260504020019 72 359 1.0 0.0 0.00 0.00 0.00 50 1010.5
20260504014654 72 359 2.0 0.0 0.00 0.00 0.00 48 1010.6
20260504013424 73 359 2.0 0.0 0.00 0.00 0.00 47 1010.8
20260504012224 75 359 1.0 0.0 0.00 0.00 0.00 46 1010.9
20260504010739 76 359 2.0 0.0 0.00 0.00 0.00 45 1011.1
20260504005454 76 359 2.0 1.0 0.00 0.00 0.00 43 1011.2
20260504004154 77 359 1.0 0.0 0.00 0.00 0.00 42 1011.2
20260504002724 78 359 3.0 1.0 0.00 0.00 0.00 44 1011.4
20260504001444 78 359 2.0 0.0 0.00 0.00 0.00 41 1011.5
20260504000059 79 359 4.0 12.0 0.00 0.00 0.00 42 1011.6
20260503234800 79 359 3.0 2.0 0.00 0.00 0.00 44 1011.7
20260503233424 79 359 3.0 3.0 0.00 0.00 0.00 42 1011.8
20260503232027 79 359 3.0 0.0 0.00 0.00 0.00 43 1012.0
20260503230554 78 359 3.0 4.0 0.00 0.00 0.00 43 1012.1
20260503225301 78 359 3.0 0.0 0.00 0.00 0.00 43 1012.3
20260503225224 78 359 3.0 0.0 0.00 0.00 0.00 43 1012.3
20260503223754 78 359 4.0 3.0 0.00 0.00 0.00 44 1012.4
20260503222344 78 359 4.0 0.0 0.00 0.00 0.00 46 1012.6
20260503220852 77 359 3.0 4.0 0.00 0.00 0.00 45 1012.8
20260503215619 76 359 3.0 4.0 0.00 0.00 0.00 47 1012.9
20260503214236 75 359 2.0 3.0 0.00 0.00 0.00 51 1012.9
20260503212954 75 359 2.0 0.0 0.00 0.00 0.00 47 1012.9
20260503211704 75 359 2.0 4.0 0.00 0.00 0.00 49 1013.0
20260503210347 74 359 2.0 3.0 0.00 0.00 0.00 49 1013.2
20260503205038 73 359 2.0 0.0 0.00 0.00 0.00 51 1013.2
20260503203609 73 359 2.0 5.0 0.00 0.00 0.00 53 1013.3
20260503202347 73 359 1.0 0.0 0.00 0.00 0.00 52 1013.4
20260503201052 72 359 1.0 0.0 0.00 0.00 0.00 53 1013.6
20260503195658 72 359 2.0 1.0 0.00 0.00 0.00 53 1013.9
20260503194444 72 359 2.0 8.0 0.00 0.00 0.00 55 1014.0
20260503193239 71 359 1.0 0.0 0.00 0.00 0.00 59 1014.0
20260503191754 69 359 1.0 2.0 0.00 0.00 0.00 60 1014.2
20260503190557 68 359 1.0 0.0 0.00 0.00 0.00 68 1014.1
20260503185247 67 359 0.0 0.0 0.00 0.00 0.00 70 1014.3
20260503183819 67 359 0.0 0.0 0.00 0.00 0.00 71 1014.3
20260503182534 66 359 1.0 0.0 0.00 0.00 0.00 71 1014.3
20260503181154 65 359 0.0 0.0 0.00 0.00 0.00 74 1014.3
20260503175854 65 359 0.0 0.0 0.00 0.00 0.00 76 1014.3
20260503174359 64 359 0.0 0.0 0.00 0.00 0.00 77 1014.4
20260503172949 64 359 3.0 5.0 0.00 0.00 0.00 76 1014.4
20260503171539 67 359 3.0 4.0 0.00 0.00 0.00 70 1014.3
20260503170139 51 359 0.0 0.0 0.00 0.00 0.00 96 1014.4
20260503131019 51 359 0.0 0.0 0.00 0.00 0.00 96 1014.4